TimeMST,TemperatureF,Dew PointF,Humidity,Sea Level PressureIn,VisibilityMPH,Wind Direction,Wind SpeedMPH,Gust SpeedMPH,PrecipitationIn,Events,Conditions,WindDirDegrees,DateUTC
12:53 AM,9.0,5.0,84,30.22,10.0,West,6.9,-,N/A,,Clear,280,2013-02-19 07:53:00
1:53 AM,6.1,1.9,83,30.23,10.0,Calm,Calm,-,N/A,,Clear,0,2013-02-19 08:53:00
2:53 AM,3.9,-0.0,84,30.24,10.0,WNW,4.6,-,N/A,,Clear,290,2013-02-19 09:53:00
3:53 AM,1.9,-2.0,83,30.25,10.0,WSW,6.9,-,N/A,,Clear,240,2013-02-19 10:53:00
4:53 AM,3.0,-2.0,80,30.26,10.0,Calm,Calm,-,N/A,,Clear,0,2013-02-19 11:53:00
5:53 AM,3.9,-2.0,76,30.28,10.0,Calm,Calm,-,N/A,,Clear,0,2013-02-19 12:53:00
6:28 AM,3.2,-0.4,85,30.11,10.0,Calm,Calm,-,N/A,,Scattered Clouds,0,2013-02-19 13:28:00
6:36 AM,6.8,1.4,79,30.11,10.0,Calm,Calm,-,N/A,,Mostly Cloudy,0,2013-02-19 13:36:00
6:53 AM,6.1,1.0,80,30.28,10.0,Calm,Calm,-,N/A,,Mostly Cloudy,0,2013-02-19 13:53:00
7:05 AM,6.8,1.4,79,30.10,10.0,Calm,Calm,-,N/A,,Scattered Clouds,0,2013-02-19 14:05:00
7:53 AM,12.0,9.0,88,30.27,10.0,Calm,Calm,-,N/A,,Clear,0,2013-02-19 14:53:00
8:53 AM,19.9,16.0,85,30.26,10.0,SSE,10.4,-,N/A,,Clear,150,2013-02-19 15:53:00
9:17 AM,21.2,17.6,86,30.10,10.0,SE,12.7,-,N/A,,Partly Cloudy,140,2013-02-19 16:17:00
9:53 AM,24.8,17.6,74,30.10,10.0,SSE,12.7,-,N/A,,Scattered Clouds,150,2013-02-19 16:53:00
11:53 AM,32.0,19.0,59,30.18,10.0,SE,16.1,21.9,N/A,,Clear,130,2013-02-19 18:53:00
12:53 PM,35.1,19.0,52,30.13,10.0,SSE,17.3,26.5,N/A,,Clear,150,2013-02-19 19:53:00
1:53 PM,36.0,19.0,50,30.12,10.0,SSE,20.7,26.5,N/A,,Clear,150,2013-02-19 20:53:00
2:53 PM,35.1,19.9,54,30.11,10.0,SE,21.9,28.8,N/A,,Clear,140,2013-02-19 21:53:00
3:53 PM,35.1,19.9,54,30.10,10.0,SE,21.9,27.6,N/A,,Clear,140,2013-02-19 22:53:00
5:53 PM,30.0,18.0,61,30.10,10.0,SE,15.0,-,N/A,,Clear,140,2013-02-20 00:53:00
6:53 PM,27.0,18.0,69,30.11,10.0,ESE,12.7,-,N/A,,Clear,120,2013-02-20 01:53:00
7:53 PM,25.0,17.1,72,30.10,10.0,SE,17.3,-,N/A,,Clear,130,2013-02-20 02:53:00
8:53 PM,25.0,16.0,69,30.08,10.0,SE,21.9,-,N/A,,Clear,140,2013-02-20 03:53:00
9:53 PM,24.1,14.0,65,30.09,10.0,SE,20.7,29.9,N/A,,Clear,140,2013-02-20 04:53:00
10:53 PM,21.2,12.2,68,29.96,10.0,SE,19.6,29.9,N/A,,Clear,140,2013-02-20 05:53:00
11:53 PM,19.9,10.0,65,30.05,10.0,SE,18.4,-,N/A,,Clear,140,2013-02-20 06:53:00